Zurück zum Katalog

COSMOS 1275 DEB

AktivPO
NORAD 13488·DEBRIS·🇷🇺 Russia

Gestartet Jun 4, 1981 von Plesetsk Cosmodrome

Loading…

Nächste Überflüge (nächste 24 Stunden)

TLE

AktuellSource: Space-Track

Epoche: Sep 14, 2026, 15:16 UTC

1 13488U 81053GJ  26257.63620302  .00000787  00000-0  11027-2 0  9990
2 13488  83.0867  24.5447 0191771 229.7316 143.3462 13.49087534164390

Verfolge COSMOS 1275 DEB in Echtzeit mit AllMySat

Download on the App Store